Regional Weather Roundup
Issued by NWS Spokane, WA

Home | Current Version | Previous Version | Text Only | Print | Product List | Glossary On
Versions: 1 2 3 4 5 6 7 8 9 10 11 12 13 14 15 16 17 18 19 20 21 22 23 24 25 26 27 28 29 30 31 32 33 34 35 36 37 38 39 40 41 42 43 44 45 46 47 48 49 50
000
NZUS01 KOTX 271725
RWROTX

Eastern Washington/Northern Idaho Roundup
National Weather Service, Spokane WA
1000 AM PDT SAT AUG 27 2016

Note: "fair" indicated few or no clouds below 12,000 feet with no
significant weather and/or obstructions to visibility.

...Northeast Washington and Northern Idaho Panhandle...

CITY           SKY/WX    TMP DP  RH WIND       PRES   REMARKS
Spokane Intl   MOSUNNY   75  39  27 S15G23    29.79R
Spokane Downto MOSUNNY   77  40  26 S8        29.78F
Coeur d Alene  SUNNY     75  43  31 E12       29.77S
Deer Park      MOSUNNY   75  38  26 S7        29.78F
Sandpoint      SUNNY     77  43  29 S6        29.76S
Bonners Ferry    N/A     75  43  31 S10       29.73F

...Southeast Washington and southern Idaho Panhandle...

CITY           SKY/WX    TMP DP  RH WIND       PRES   REMARKS
Walla Walla    SUNNY     82  41  23 SW15      29.80S
Pullman/Moscow PTSUNNY   78  43  28 SW13G23   29.86S
Lewiston       PTSUNNY   75  41  29 NE8       29.80F
Lowell           N/A     65  45  48 CALM      29.88F
Grangeville    FAIR      77  37  24 SW16      29.90S

...Columbia Basin...

CITY           SKY/WX    TMP DP  RH WIND       PRES   REMARKS
Ephrata        CLOUDY    81  47  30 SW12      29.71S
Moses Lake     PTSUNNY   84  42  22 SW14      29.72S
Pasco          SUNNY     83  47  28 SW18      29.74S
Richland       SUNNY     85  49  28 S15       29.73S
Hermiston      SUNNY     85  44  23 W18G28    29.77S
Pendleton      SUNNY     84  40  21 W24G32    29.81S

...East Slopes Cascades...

CITY           SKY/WX    TMP DP  RH WIND       PRES   REMARKS
The Dalles     SUNNY     80  45  28 NW18      29.80R
Yakima         PTSUNNY   73  48  41 CALM      29.77R
Ellensburg     CLOUDY    73  42  32 NW14      29.78R
Stampede Pass  MOSUNNY   58  42  55 VRB7      29.90S
Wenatchee      CLOUDY    73  45  36 W6        29.73R
Omak           CLOUDY    70  45  40 S5        29.69S
Chelan           N/A     73  43  33 S6          N/A
Sunnyside        N/A     77  51  40 E3        29.76R

...Southern British Columbia...

CITY           SKY/WX    TMP DP  RH WIND       PRES   REMARKS
Penticton      PTSUNNY   73  50  43 S7G17     29.64S
Castlegar      CLOUDY    64  52  63 SE3       29.70S
Cranbrook      PTSUNNY   72  43  35 S16       29.71F
Osoyoos          N/A     72  50  46 SE3         N/A
Creston          N/A     75  46  35 SW3         N/A

...Western Montana...

CITY           SKY/WX    TMP DP  RH WIND       PRES   REMARKS
Kalispell      MOSUNNY   75  43  31 SE16      29.79F
Libby            N/A     72  45  37 W5        29.76F
Missoula       MOSUNNY   66  38  35 CALM      29.90F

...Neighboring Cities...

CITY           SKY/WX    TMP DP  RH WIND       PRES   REMARKS
Seattle        CLOUDY    63  55  75 S9        29.87R
Portland       MOSUNNY   68  54  60 CALM      29.95R
Boise          SUNNY     76  32  20 SE7       29.95S
Great Falls    MOSUNNY   76  35  22 SW23G29   29.81F
Calgary        PTSUNNY   64  50  59 SW9       29.61F



USA.gov is the U.S. government's official web portal to all federal, state and local government web resources and services.